This is the latest recevied weather packets stored in our database for station/object KM8V-8. If no packets are shown the sender has not sent any weather packets the latest 10 day(s).
| Time | Temp. | Humidity | Pressure | Rain* | Wind** | Luminosity | Snow |
|---|---|---|---|---|---|---|---|
| 1778085018 | 10.56° C | 75% | 1011.7 hPa | 0 mm | - | 912 W/m² | - |
| 1778084717 | 10.56° C | 75% | 1011.6 hPa | 0 mm | - | 894 W/m² | - |
| 1778084417 | 10.56° C | 76% | 1011.7 hPa | 0 mm | - | 862 W/m² | - |
| 1778084117 | 10.56° C | 76% | 1011.7 hPa | 0 mm | - | 797 W/m² | - |
| 1778083824 | 10.56° C | 77% | 1011.7 hPa | 0 mm | - | 845 W/m² | - |
| 1778083518 | 10.56° C | 78% | 1011.6 hPa | 0 mm | - | 819 W/m² | - |
| 1778083219 | 10.56° C | 79% | 1011.5 hPa | 0 mm | - | 856 W/m² | - |
| 1778082918 | 10.56° C | 79% | 1011.5 hPa | 0 mm | - | 680 W/m² | - |
| 1778082618 | 10.56° C | 79% | 1011.6 hPa | 0 mm | - | 827 W/m² | - |
| 1778082323 | 10° C | 82% | 1011.5 hPa | 0 mm | - | 855 W/m² | - |
| 1778082016 | 10° C | 80% | 1011.4 hPa | 0 mm | - | 842 W/m² | - |
| 1778081716 | 10° C | 81% | 1011.3 hPa | 0 mm | - | 847 W/m² | - |
| 1778081416 | 10° C | 83% | 1011.1 hPa | 0 mm | - | 854 W/m² | - |
| 1778081117 | 10° C | 82% | 1011 hPa | 0 mm | - | 807 W/m² | - |
| 1778080819 | 10° C | 82% | 1010.9 hPa | 0 mm | - | 712 W/m² | - |
| 1778080518 | 10° C | 82% | 1010.8 hPa | 0 mm | - | 644 W/m² | - |
| 1778080225 | 10° C | 84% | 1010.7 hPa | 0 mm | - | 519 W/m² | - |
| 1778079919 | 10° C | 84% | 1010.7 hPa | 0 mm | - | 585 W/m² | - |
| 1778079619 | 10° C | 84% | 1010.8 hPa | 0 mm | - | 539 W/m² | - |
| 1778079317 | 10.56° C | 84% | 1010.8 hPa | 0 mm | - | 575 W/m² | - |
| 1778079017 | 10.56° C | 85% | 1010.7 hPa | 0 mm | - | 629 W/m² | - |
| 1778078717 | 10.56° C | 86% | 1010.6 hPa | 0 mm | - | 682 W/m² | - |
| 1778078417 | 10° C | 86% | 1010.5 hPa | 0 mm | - | 651 W/m² | - |
| 1778078117 | 10° C | 85% | 1010.5 hPa | 0 mm | - | 587 W/m² | - |
| 1778077818 | 10° C | 84% | 1010.5 hPa | 0 mm | - | 304 W/m² | - |
* Rain latest hour (hover to see other rain measurements)
** Current wind speed in m/s (hover to see current wind gust speed)